Retour au catalogue

STARLINK-32857

ActifCommunicationsVLEO
NORAD 62949·PAYLOAD·🇺🇸 United States

Lancé Feb 11, 2025 depuis Vandenberg Space Force Base

Loading…

Prochains Passages (prochaines 24 heures)

TLE

FraisSource: CelesTrak SupGP

Époque: Sep 15, 2026, 03:26 UTC

1 62949C 25029B   26258.14354167 -.00028538  00000+0 -84335-3 0  2583
2 62949  53.1575  66.4249 0001182  93.3932 103.2202 15.34397898    18

Suivez STARLINK-32857 en temps réel avec AllMySat

Download on the App Store